Tracking 17138 objects as of 3-July-2015
HD Live streaming from Space Station

SL-14 DEB

Track SL-14 DEB now!
10-day predictions
SL-14 DEB is classified as:


NORAD ID: 19450
Int'l Code: 1978-100AH
Perigee: 1,684.7 km
Apogee: 1,708.7 km
Inclination: 82.6 °
Period: 120.2 minutes
Semi major axis: 8067 km
RCS: 0.0566 m2 (small)
Launch date: October 26, 1978
Source: Commonwealth of Independent States (former USSR) (CIS)

Note: This is SATELLITE DEBRIS
Your satellite tracking list
Your tracking list is empty





NASA's NSSDC Master Catalog

Two Line Element Set (TLE):
1 19450U 78100AH  15183.81772890  .00000059  00000-0  63805-3 0  9994
2 19450 082.5506 133.4867 0014929 008.2381 019.7220 11.98058927179408

Source of the keplerian elements: AFSPC

N2YO: 211